Rome Ciampino, Italy

2:23 PM CEST on July 23, 2017 (GMT +0200)
Ciampino

Weather History for LIRA - October, 2011

Change the Weather History Date:

Monday, October 31, 2011

  Actual Average Record
Temperature  
Mean Temperature 60 °F -  
Max Temperature 68 °F 61 °F 75 °F (2013)
Min Temperature 51 °F 44 °F 46 °F (1996)
Degree Days  
Heating Degree Days 6    
Growing Degree Days 10 (Base 50)    
Moisture  
Dew Point 55 °F    
Average Humidity 85    
Maximum Humidity 100    
Minimum Humidity 64    
Precipitation  
Precipitation 0.00 in 0.17 in - ()
Sea Level Pressure  
Sea Level Pressure 30.10 in    
Wind  
Wind Speed 2 mph ()    
Max Wind Speed 7 mph    
Max Gust Speed -    
Visibility 5.9 miles    
Events      
Averages and records for this station are not official NWS values.
T = Trace of Precipitation, MM = Missing Value Source: Averaged Metar Reports

Daily Weather History Graph

Daily Weather History Graph

Search for Another Location

Airport or City:

Trip Planner

Search our weather history database for the weather conditions in past years. The results will help you decide how hot, cold, wet, or windy it might be!

Date:

Astronomy

Oct. 31, 2011 Rise Set
Actual Time 6:40 AM CET 5:06 PM CET
Civil Twilight 6:11 AM CET 5:34 PM CET
Nautical Twilight 5:38 AM CET 6:07 PM CET
Astronomical Twilight 5:06 AM CET 6:39 PM CET
Moon 11:36 AM CET (10/31) 9:21 PM CET (10/31)
Length of Visible Light 11h 23m
Length of Day
10h 25m
Waxing Crescent, 27% of the Moon is Illuminated
Oct 31
Waxing Crescent
Nov 2
First Quarter
Nov 10
Full
Nov 18
Last Quarter
Nov 25
New

Hourly Weather History & Observations

Time (CET) Temp. Dew Point Humidity Pressure Visibility Wind Dir Wind Speed Gust Speed Precip Events Conditions
12:15 AM 59.0 °F 57.2 °F 94% 30.12 in 6.2 mi Calm Calm - N/A   Mostly Cloudy
12:45 AM 59.0 °F 57.2 °F 94% 30.12 in 6.2 mi NNE 2.3 mph - N/A   Mostly Cloudy
1:15 AM 57.2 °F 57.2 °F 100% 30.12 in 5.0 mi NE 1.2 mph - N/A   Mostly Cloudy
1:45 AM 57.2 °F 57.2 °F 100% 30.12 in 5.0 mi NE 1.2 mph - N/A   Mostly Cloudy
2:15 AM 57.2 °F 55.4 °F 94% 30.12 in 5.0 mi Calm Calm - N/A   Mostly Cloudy
2:45 AM 55.4 °F 55.4 °F 100% 30.12 in 5.0 mi North 2.3 mph - N/A   Scattered Clouds
3:15 AM 55.4 °F 55.4 °F 100% 30.12 in 6.2 mi North 2.3 mph - N/A   Partly Cloudy
3:45 AM 53.6 °F 53.6 °F 100% 30.12 in 6.2 mi North 3.5 mph - N/A   Scattered Clouds
4:15 AM 53.6 °F 53.6 °F 100% 30.12 in 6.2 mi North 3.5 mph - N/A   Scattered Clouds
4:45 AM 53.6 °F 53.6 °F 100% 30.12 in 5.0 mi NNE 3.5 mph - N/A   Scattered Clouds
5:15 AM 53.6 °F 53.6 °F 100% 30.12 in 5.0 mi North 3.5 mph - N/A   Scattered Clouds
5:45 AM 53.6 °F 53.6 °F 100% 30.12 in 5.0 mi North 3.5 mph - N/A   Scattered Clouds
6:15 AM 53.6 °F 51.8 °F 94% 30.12 in 5.0 mi North 4.6 mph - N/A   Scattered Clouds
6:45 AM 51.8 °F 51.8 °F 100% 30.09 in 5.0 mi NE 5.8 mph - N/A   Partly Cloudy
7:15 AM 51.8 °F 50.0 °F 94% 30.09 in 5.0 mi NNE 3.5 mph - N/A   Partly Cloudy
7:45 AM 51.8 °F 50.0 °F 94% 30.12 in 5.0 mi NNE 3.5 mph - N/A   Partly Cloudy
8:15 AM 53.6 °F 53.6 °F 100% 30.12 in 6.2 mi NE 4.6 mph - N/A   Partly Cloudy
8:45 AM 55.4 °F 53.6 °F 94% 30.12 in 6.2 mi NNE 4.6 mph - N/A   Partly Cloudy
9:15 AM 57.2 °F 55.4 °F 94% 30.12 in 6.2 mi NE 2.3 mph - N/A   Partly Cloudy
9:45 AM 59.0 °F 53.6 °F 82% 30.12 in 6.2 mi NNE 4.6 mph - N/A   Partly Cloudy
10:15 AM 62.6 °F 53.6 °F 72% 30.12 in 6.2 mi NNW 3.5 mph - N/A   Partly Cloudy
10:45 AM 64.4 °F 55.4 °F 73% 30.12 in 6.2 mi WNW 4.6 mph - N/A   Scattered Clouds
11:15 AM 64.4 °F 53.6 °F 68% 30.12 in 6.2 mi NNW 5.8 mph - N/A   Scattered Clouds
11:45 AM 64.4 °F 51.8 °F 64% 30.12 in 6.2 mi NNW 3.5 mph - N/A   Scattered Clouds
12:15 PM 66.2 °F 53.6 °F 64% 30.12 in 6.2 mi Calm Calm - N/A   Scattered Clouds
12:45 PM 68.0 °F 55.4 °F 64% 30.09 in 6.2 mi WNW 2.3 mph - N/A   Scattered Clouds
1:15 PM 66.2 °F 53.6 °F 64% 30.09 in 6.2 mi WNW 4.6 mph - N/A   Scattered Clouds
1:45 PM 66.2 °F 53.6 °F 64% 30.09 in 6.2 mi WSW 4.6 mph - N/A   Scattered Clouds
2:15 PM 66.2 °F 53.6 °F 64% 30.09 in 6.2 mi WNW 5.8 mph - N/A   Scattered Clouds
2:45 PM 66.2 °F 53.6 °F 64% 30.09 in 6.2 mi WNW 2.3 mph - N/A   Scattered Clouds
3:15 PM 66.2 °F 53.6 °F 64% 30.06 in 6.2 mi WSW 2.3 mph - N/A   Scattered Clouds
3:45 PM 66.2 °F 55.4 °F 68% 30.06 in 6.2 mi WSW 4.6 mph - N/A   Scattered Clouds
4:15 PM 64.4 °F 55.4 °F 73% 30.06 in 6.2 mi SW 4.6 mph - N/A   Scattered Clouds
4:45 PM 64.4 °F 57.2 °F 77% 30.06 in 6.2 mi SW 4.6 mph - N/A   Mostly Cloudy
5:15 PM 62.6 °F 57.2 °F 82% 30.06 in 6.2 mi SW 3.5 mph - N/A   Mostly Cloudy
5:45 PM 62.6 °F 57.2 °F 82% 30.06 in 6.2 mi Calm Calm - N/A   Mostly Cloudy
6:15 PM 62.6 °F 57.2 °F 82% 30.06 in 6.2 mi South 1.2 mph - N/A   Scattered Clouds
6:45 PM 60.8 °F 57.2 °F 88% 30.06 in 6.2 mi Calm Calm - N/A   Scattered Clouds
7:15 PM 60.8 °F 55.4 °F 82% 30.06 in 6.2 mi Calm Calm - N/A   Scattered Clouds
7:45 PM 60.8 °F 55.4 °F 82% 30.06 in 6.2 mi East 3.5 mph - N/A   Mostly Cloudy
8:15 PM 60.8 °F 55.4 °F 82% 30.09 in 6.2 mi Calm Calm - N/A   Mostly Cloudy
8:45 PM 60.8 °F 55.4 °F 82% 30.09 in 6.2 mi ESE 1.2 mph - N/A   Mostly Cloudy
9:15 PM 60.8 °F 55.4 °F 82% 30.09 in 6.2 mi East 6.9 mph - N/A   Mostly Cloudy
9:45 PM 59.0 °F 55.4 °F 88% 30.09 in 6.2 mi ESE 4.6 mph - N/A   Mostly Cloudy
10:15 PM 59.0 °F 55.4 °F 88% 30.09 in 6.2 mi East 2.3 mph - N/A   Mostly Cloudy
10:45 PM 59.0 °F 55.4 °F 88% 30.09 in 6.2 mi NE 2.3 mph - N/A   Mostly Cloudy
11:15 PM 59.0 °F 55.4 °F 88% 30.09 in 6.2 mi NNE 1.2 mph - N/A   Mostly Cloudy
11:45 PM 57.2 °F 55.4 °F 94% 30.09 in 6.2 mi East 1.2 mph - N/A   Scattered Clouds